Location: Elbart
(49.6135°N, 11.9134°E)
Time: 03:42:55
(UTC+00:00)

Cosmos 2278 - Pass Details

Date: 09 April 2020
Orbit: 839 x 853 km, 71.1° (Epoch: 04 June)

Event Time Altitude Azimuth Distance (km) Brightness Sun altitude
Rises 20:23:04 0° 333° (NNW) 3,406 8.1 -21.5°
Reaches altitude 10° 20:25:35 10° 338° (NNW) 2,469 7.1 -21.8°
Maximum altitude 20:31:07 53° 55° (NE) 1,030 4.0 -22.4°
Enters shadow 20:32:26 44° 98° (E) 1,161 4.0 -22.5°
